カタログに戻る

STARLINK-1305

運用中通信VLEO
NORAD 45377·PAYLOAD·🇺🇸 United States

打ち上げ Mar 18, 2020 から Cape Canaveral Space Force Station

Loading…

次のパス (今後24時間)

TLE

最新Source: CelesTrak SupGP

元期: Sep 14, 2026, 22:07 UTC

1 45377C 20019T   26257.92201389  .00247020  00000+0  70718-3 0  2571
2 45377  53.0295 274.2587 0006258  44.8327  28.6673 15.92304629    10

AllMySatでSTARLINK-1305をリアルタイム追跡

Download on the App Store